Address 0x7cd8290e9294abb13bfc3ca00b25a7c3fbab2789

 
Txn Hash
Block
From
To
Value [Txn Fee]
0x13a8cf3879711eff59f7c8bae7655013786614c72f1ced1c36809738aa40b50895631752021-07-29 2:19:5254 mins ago0x7cd8290e9294abb13bfc3ca00b25a7c3fbab2789OUT 0xf572bdef737d7e3a378653ddf3e83e7605414a110 BNB0.000180895
0x2d4e4f80642c14740321f57c2e9cef30cb021ef1711bde665ea1a901fb43778295630712021-07-29 2:14:4059 mins ago0x7cd8290e9294abb13bfc3ca00b25a7c3fbab2789OUT 0xf572bdef737d7e3a378653ddf3e83e7605414a110 BNB0.000180895
0xe2a67ff9fcacd0d92839ddd1cb7758d780cf48d90813beb01de7e250dd7bcada95627682021-07-29 1:58:531 hr 15 mins ago0x7cd8290e9294abb13bfc3ca00b25a7c3fbab2789OUT 0xf572bdef737d7e3a378653ddf3e83e7605414a110 BNB0.000180835
0x0ca543607531fb2d86be704010606c8b6b9e2050b54172ce92e370ef5182fc5b95626172021-07-29 1:51:201 hr 22 mins ago0x7cd8290e9294abb13bfc3ca00b25a7c3fbab2789OUT 0xf572bdef737d7e3a378653ddf3e83e7605414a110 BNB0.000180835
0x3b383aa59a540a27c7818d79f3b0ee4ab01fcdd421c5ff86ab6a322bf87cc81795626122021-07-29 1:51:051 hr 23 mins ago0x7cd8290e9294abb13bfc3ca00b25a7c3fbab2789OUT 0xf572bdef737d7e3a378653ddf3e83e7605414a110 BNB0.000180835
0xc390b4b469f3543051ccfce9c7f463d6993d22edca103d8d6c0d46557479a7cb95625972021-07-29 1:50:201 hr 23 mins ago0x7cd8290e9294abb13bfc3ca00b25a7c3fbab2789OUT 0xf572bdef737d7e3a378653ddf3e83e7605414a110 BNB0.000180835
0xf4f7c9f2b831ab72219db49cb4792ecb1d476ef1a2a0099bd56b5a935e891c3795612812021-07-29 0:43:522 hrs 30 mins ago0x7cd8290e9294abb13bfc3ca00b25a7c3fbab2789OUT 0xf572bdef737d7e3a378653ddf3e83e7605414a110 BNB0.000180835
0xc933a61c21676f7b51696a1d9b0c4ccbf4ebb149b8b7c922b346eebaf4357de895605332021-07-29 0:06:053 hrs 8 mins ago0x7cd8290e9294abb13bfc3ca00b25a7c3fbab2789OUT 0xf572bdef737d7e3a378653ddf3e83e7605414a110 BNB0.000180895
0x0deb6ee8b9f12a92592a3d354c76e9bb8d6cdd0e707e4d2bf11eb58e80eda8ed95595622021-07-28 23:15:593 hrs 58 mins ago0x7cd8290e9294abb13bfc3ca00b25a7c3fbab2789OUT 0xf572bdef737d7e3a378653ddf3e83e7605414a110 BNB0.000180835
0x874533bbd06f876dab4c27d3c26e79ba107e687ebadd9b6c3e00e65ecf2ac26695590872021-07-28 22:51:204 hrs 22 mins ago0x7cd8290e9294abb13bfc3ca00b25a7c3fbab2789OUT 0xf572bdef737d7e3a378653ddf3e83e7605414a110 BNB0.000180895
0xc5b746ead3774d191a2e4ddea2bd86fdeb3ded1e7fd5e22237287e0e73a9c6e495518772021-07-28 16:34:0410 hrs 40 mins ago0x7cd8290e9294abb13bfc3ca00b25a7c3fbab2789OUT 0xf572bdef737d7e3a378653ddf3e83e7605414a110 BNB0.00018119667
0x6322e287e68d7b13436e596c8950e46198cdadd7fe967de037fe18739b0cf3c895490952021-07-28 13:50:0413 hrs 24 mins ago0x7cd8290e9294abb13bfc3ca00b25a7c3fbab2789OUT 0xf572bdef737d7e3a378653ddf3e83e7605414a110 BNB0.000180835
0x7819c0336851c3176f7cee3cd817efd679191fefc2139ae67f96aed7ee6da9a195476992021-07-28 12:32:0514 hrs 42 mins ago0x7cd8290e9294abb13bfc3ca00b25a7c3fbab2789OUT 0xf572bdef737d7e3a378653ddf3e83e7605414a110 BNB0.000180835
0x4a3b08de2d7be58551c61eb53787cafa17fd471962a6b24e1fad007135da3f5695474662021-07-28 12:18:4814 hrs 55 mins ago0x7cd8290e9294abb13bfc3ca00b25a7c3fbab2789OUT 0xf572bdef737d7e3a378653ddf3e83e7605414a110 BNB0.000180835
0x580208a03b34609e236333575cc0b6ef5913f5fe4a1ef1da7f6611f7775ab3c195473802021-07-28 12:13:4015 hrs ago0x7cd8290e9294abb13bfc3ca00b25a7c3fbab2789OUT 0xf572bdef737d7e3a378653ddf3e83e7605414a110 BNB0.000180895
0x05f4451c3c5ba584d038f78d85463f3b59af90db12c032237b3bc8895d9e44c295473202021-07-28 12:10:3615 hrs 3 mins ago0x7cd8290e9294abb13bfc3ca00b25a7c3fbab2789OUT 0xf572bdef737d7e3a378653ddf3e83e7605414a110 BNB0.000255895
0xc227447734cdc7bfbe6a7fd3efb32cd62061f94f5a96ad69fb73488ded371cea95473102021-07-28 12:10:0615 hrs 4 mins ago0x7cd8290e9294abb13bfc3ca00b25a7c3fbab2789OUT 0xf572bdef737d7e3a378653ddf3e83e7605414a110 BNB0.000180835
0x4b0f5b66143051d8e388947c7ba6bf17d05010b3f359c5eaa8cb0766352100e895472672021-07-28 12:07:5215 hrs 6 mins ago0x7cd8290e9294abb13bfc3ca00b25a7c3fbab2789OUT 0xf572bdef737d7e3a378653ddf3e83e7605414a110 BNB0.000180895
0x6dffc270326ed2c56023f2a4848f14d0c1c3b98fbc677b6ae4e26c284826f83795465192021-07-28 11:28:0915 hrs 46 mins ago0x7cd8290e9294abb13bfc3ca00b25a7c3fbab2789OUT 0xf572bdef737d7e3a378653ddf3e83e7605414a110 BNB0.000180775
0x85bef74a95831cd1220dc98cd3f35f3ea3f815839ddd457757af72983d13f6b295453722021-07-28 10:20:5016 hrs 53 mins ago0x7cd8290e9294abb13bfc3ca00b25a7c3fbab2789OUT 0xf572bdef737d7e3a378653ddf3e83e7605414a110 BNB0.000180835
0x030a27d1bf2d9ccb16d8270b970c40c8108e6dd06ee7728a84d0061393143e2695446822021-07-28 9:45:0617 hrs 29 mins ago0x7cd8290e9294abb13bfc3ca00b25a7c3fbab2789OUT 0xf572bdef737d7e3a378653ddf3e83e7605414a110 BNB0.000180895
0x7b3d5e25a4ace9452ce35b5ef012bcd78064755d96c4e6a5bdd8640e448e3f0995446652021-07-28 9:44:1217 hrs 30 mins ago0x7cd8290e9294abb13bfc3ca00b25a7c3fbab2789OUT 0xf572bdef737d7e3a378653ddf3e83e7605414a110 BNB0.000180895
0x31297381c4edcadbdafea38d492d4ba9813ffa5534bf2bb7edb2cb11d04709e995446472021-07-28 9:43:1217 hrs 31 mins ago0x7cd8290e9294abb13bfc3ca00b25a7c3fbab2789OUT 0xf572bdef737d7e3a378653ddf3e83e7605414a110 BNB0.000180895
0xc1791c5ebd716b514d1d8a39ae6795c620392c7369e0375ec7c5c58e39cef31e95446352021-07-28 9:42:2817 hrs 31 mins ago0x7cd8290e9294abb13bfc3ca00b25a7c3fbab2789OUT 0xf572bdef737d7e3a378653ddf3e83e7605414a110 BNB0.000180895
0xf0bc031bb891106dedb93809fca56296bba932b485ad1a2d10ed48b1dbabc3b595446122021-07-28 9:41:0217 hrs 33 mins ago0x7cd8290e9294abb13bfc3ca00b25a7c3fbab2789OUT 0xf572bdef737d7e3a378653ddf3e83e7605414a110 BNB0.000180835
[ Download CSV Export 
Parent Txn Hash Block From To Value
Loading

Contract Name:
0 BNB

Compiler Version
0

Optimization Enabled:
0 BNB

Other Settings:
-NA-
Block Transaction Gas Used Reward
Age Block Fee Address BC Fee Address Voting Power Jailed Incoming
Block Uncle Number Difficulty Gas Used Reward
Loading
Loading
Make sure to use the "Vote Down" button for any spammy posts, and the "Vote Up" for interesting conversations.